Hourly Data Report for March 29, 2004

TORONTO CITY
ONTARIO

43°40'00.000" N
79°24'00.000" W
112.50 m
6158355
71508
XTO

Download Data

Hourly Data (March 2004)
Hourly Data Report for March 29, 2004
TIME
LST
Temp Definition
°C
Dew Point Definition
°C
Rel Hum Definition
%
Precip. Amount Definition
mm

Wind Dir Definition
10's deg

Wind Spd Definition
km/h
Visibility Definition
km
Stn Press Definition
kPa
Hmdx Definition


Wind Chill Definition


Weather Definition


00:00 6.8 2.9 76   LegendMM LegendMM LegendMM 101.04     LegendNANA
01:00 6.1 2.9 80   LegendMM LegendMM LegendMM 101.03     LegendNANA
02:00 5.6 2.8 82   LegendMM LegendMM LegendMM 100.96     LegendNANA
03:00 5.6 3.0 83   LegendMM LegendMM LegendMM 100.93     LegendNANA
04:00 5.8 3.1 83   LegendMM LegendMM LegendMM 100.88     LegendNANA
05:00 6.1 3.3 82   LegendMM LegendMM LegendMM 100.88     LegendNANA
06:00 6.5 3.3 80   LegendMM LegendMM LegendMM 100.88     LegendNANA
07:00 7.3 3.4 76   LegendMM LegendMM LegendMM 100.88     LegendNANA
08:00 8.6 3.7 71   LegendMM LegendMM LegendMM 100.86     LegendNANA
09:00 10.2 3.9 65   LegendMM LegendMM LegendMM 100.86     LegendNANA
10:00 10.2 3.5 63   LegendMM LegendMM LegendMM 100.91     LegendNANA
11:00 10.9 3.9 62   LegendMM LegendMM LegendMM 100.88     LegendNANA
12:00 11.8 4.1 59   LegendMM LegendMM LegendMM 100.83     LegendNANA
13:00 12.7 4.2 56   LegendMM LegendMM LegendMM 100.79     LegendNANA
14:00 12.8 4.5 57   LegendMM LegendMM LegendMM 100.74     LegendNANA
15:00 13.5 4.1 53   LegendMM LegendMM LegendMM 100.70     LegendNANA
16:00 13.6 4.5 54   LegendMM LegendMM LegendMM 100.67     LegendNANA
17:00 13.2 4.6 56   LegendMM LegendMM LegendMM 100.64     LegendNANA
18:00 13.5 5.2 57   LegendMM LegendMM LegendMM 100.61     LegendNANA
19:00 13.4 5.1 57   LegendMM LegendMM LegendMM 100.60     LegendNANA
20:00 13.4 5.3 58   LegendMM LegendMM LegendMM 100.62     LegendNANA
21:00 13.4 5.6 59   LegendMM LegendMM LegendMM 100.65     LegendNANA
22:00 9.6 4.6 71   LegendMM LegendMM LegendMM 100.61     LegendNANA
23:00 10.8 5.8 71   LegendMM LegendMM LegendMM 100.54     LegendNANA

Notes on Data Quality.

Legend

  • E = Estimated
  • M = Missing
  • NA = Not Available*
  • [empty] = Indicates an unobserved value
Date modified: